STARLINK B (59923 NORAD) Tracking and Keplerian Element Data

This shows tracking and keplerian element data for the satellite.

Feedback or suggestion? Click here.




ElementValue
Catalog59923
NameSTARLINK B
Epoch Orbit233
Epoch Day160.16667824
Epoch Year2024
RAAN22.4937
Inclination43.003
Eccentricity0.0001978
Argument of Perigee279.2765
Mean Anonmoly138.608
Mean Motion15.91950893
Decay Rate-0.00885086
L11 59923U 24106B 24160.16667824 -.00885086 24179-3 -25741-2 0 9998
L22 59923 43.0030 22.4937 0001978 279.2765 138.6080 15.91950893 2334



Live tracking and technical data element details for STARLINK B (NORAD 59923). STARLINK B can be tracked NOW for your location showing map with azimuth and elevation plus other details from your city location.







IsCatalogInMostPopularTable: catalog: 59923, numindb: 18
Update: records affected: 1



GetName: 59923 STARLINK B

Hit Count: updated at: Thu, 25 Jul 2024 00:53:22 GMT